[[{"header":{"parameterUnit":"m.s-1","parameterCategory":2,"la1":30.2991,"la2":30.254,"lo1":-89.0895,"lo2":-89.0444,"dy":0.0017,"dx":0.0017,"nx":28,"ny":28,"refTime":"2025-05-16T21:00:00:Z","depth":"0","parameterNumber":2,"parameterNumberName":"U-component_of_CURRENTS"},"data":[0,0,0,0,0,0,0,0,0,0,0,0,0,0,0,0,0,0,0,0,0,0,0,0,0,0,0,0,0,0,0,0,0,0,0,0,0,0,0,0,0,0,0,0,0,0,0,0,0,0,0,0,0,0,0,0,0,0,0.3562,0.3563,0,0.3643,0.3644,0.3645,0.3656,0.3656,0.3655,0.3655,0.3664,0.3665,0.3666,0,0,0,0,0,0,0,0,0,0,0,0,0,0.3332,0.3336,0.3561,0.3563,0.3564,0.3643,0.3644,0.3645,0.3656,0.3656,0.3655,0.3654,0.3664,0.3665,0.3666,0,0,0,0,0,0,0,0,0,0,0,0,0,0.3422,0.3338,0.3561,0.3581,0.3584,0.3643,0.3644,0.3645,0.3656,0.3656,0.3655,0.3654,0.3664,0.3665,0.3666,0.3688,0,0,0.3669,0.367,0,0,0,0,0,0,0,0,0.3417,0.343,0.3577,0.358,0.3583,0.3641,0.3567,0.3657,0.3657,0.3626,0.3655,0.3654,0.3652,0.3654,0.3669,0.3689,0.3689,0.3669,0.367,0.3671,0.3671,0,0,0,0,0,0,0,0.3411,0.3426,0.3591,0.3578,0.3582,0.3558,0.357,0.3584,0.3639,0.3629,0.363,0.3644,0.3653,0.3668,0.3669,0.3689,0.3669,0.367,0.3671,0.3672,0.3735,0.3736,0,0,0,0,0,0,0.3413,0.3421,0.3589,0.3594,0.35,0.3563,0.3577,0.3621,0.364,0.3644,0.3645,0.3644,0.3666,0.3667,0.3669,0.3685,0.3671,0.3672,0.3672,0.3734,0.3735,0.3736,0,0,0,0,0,0,0.3408,0.3428,0.3585,0.3509,0.3528,0.3569,0.3618,0.3623,0.3641,0.3654,0.3655,0.3657,0.3665,0.3667,0.3695,0.3686,0.3672,0.3673,0.3733,0.3734,0.3736,0.3724,0,0,0,0,0,0,0.3401,0.3426,0.3458,0.3511,0.3532,0.3623,0.3619,0.3625,0.3652,0.3652,0.3665,0.3665,0.3665,0.3693,0.3696,0.3687,0.3674,0.3732,0.3734,0.3735,0.3724,0.3725,0.3727,0,0,0,0,0,0.3393,0.3437,0.346,0.348,0.3577,0.3624,0.3632,0.3655,0.3653,0.3666,0.3681,0.3665,0.3706,0.3696,0.3698,0.3689,0.3731,0.3733,0.3735,0.3723,0.3725,0.3727,0,0,0,0,0,0,0.3348,0.3445,0.347,0.3541,0.3581,0.3627,0.3642,0.3659,0.3684,0.368,0.3686,0.3688,0.3709,0.3711,0.3698,0.3717,0.3713,0.3716,0.3702,0.3705,0.3706,0.3756,0.3675,0,0,0,0,0,0.3357,0.342,0.349,0.3543,0.3564,0.3604,0.3625,0.3644,0.3674,0.3683,0.3692,0.3704,0.3722,0.3722,0.3741,0.3752,0.3815,0.3748,0.375,0.3751,0.3796,0.3881,0.3895,0.3744,0.3744,0.3744,0,0,0.3354,0.3414,0.3449,0.3537,0.3566,0.36,0.3614,0.3649,0.3673,0.368,0.3703,0.3716,0.3732,0.3747,0.3754,0.3743,0.3827,0.3754,0.3755,0.3801,0.3885,0.39,0.3914,0.3746,0.3745,0.3745,0,0,0.3359,0.343,0.3473,0.3512,0.3569,0.3598,0.3609,0.3657,0.3673,0.3702,0.3716,0.3744,0.3747,0.3774,0.3783,0.3813,0.3842,0.3791,0.3828,0.3907,0.3921,0.3934,0.4033,0.4055,0.378,0.378,0.378,0,0.3344,0.3419,0.3484,0.3523,0.3549,0.3596,0.3621,0.3654,0.3701,0.3725,0.3703,0.377,0.3769,0.3825,0.3829,0.3817,0.3877,0.3808,0.3911,0.3925,0.3939,0.4037,0.4061,0.378,0.378,0.378,0.378,0,0.3383,0.343,0.345,0.3525,0.3559,0.3589,0.3643,0.3675,0.3687,0.3724,0.3779,0.3802,0.3849,0.3833,0.3836,0.3923,0.3941,0.3909,0.3905,0.3953,0.4054,0.4079,0.3779,0.3779,0.3779,0.378,0,0,0.336,0.346,0.346,0.3498,0.356,0.3602,0.3636,0.3699,0.3759,0.3777,0.385,0.3871,0.3905,0.3925,0.3934,0.3996,0.4122,0.3991,0.3995,0.4091,0.4327,0.4237,0.4256,0.4101,0.4105,0.4108,0.4359,0,0.3355,0.3425,0.347,0.3522,0.3561,0.3612,0.3657,0.3722,0.3772,0.3859,0.3897,0.3974,0.3932,0.3972,0.4023,0.4121,0.4191,0.406,0.4268,0.4276,0.4189,0.4283,0.41,0.4298,0.4384,0.4389,0.4392,0,0.3361,0.3414,0.3461,0.3552,0.3574,0.3616,0.3719,0.3769,0.389,0.3933,0.4009,0.4063,0.418,0.4125,0.4317,0.4235,0.4293,0.4348,0.4358,0.4307,0.4234,0.4265,0.4342,0.4213,0.4431,0.4428,0.4425,0,0.3323,0.34,0.3442,0.3472,0.3582,0.3619,0.368,0.3792,0.3853,0.4014,0.408,0.4212,0.4296,0.4396,0.4479,0.4426,0.4689,0.4622,0.4601,0.4597,0.4504,0.4482,0.4484,0.4765,0.4764,0.4763,0.4763,0,0.3308,0.3344,0.3441,0.3477,0.3543,0.3626,0.371,0.3801,0.3932,0.4027,0.4131,0.4224,0.4368,0.4501,0.4563,0.4674,0.4755,0.4664,0.4667,0.4491,0.4466,0.4398,0.4353,0.4773,0.4771,0.4769,0.4767,0,0.3275,0.3325,0.3392,0.3503,0.353,0.3592,0.37,0.3789,0.3915,0.4047,0.4105,0.4285,0.4469,0.4597,0.4797,0.4778,0.4768,0.4901,0.4693,0.4664,0.448,0.4442,0.4383,0.4253,0.4953,0.4953,0.4952,0,0.3275,0.3302,0.3398,0.3432,0.3485,0.3564,0.3627,0.3759,0.3854,0.4061,0.4139,0.4349,0.4461,0.4724,0.4777,0.4918,0.476,0.4798,0.4643,0.4489,0.4451,0.4275,0.4156,0.4537,0.4533,0.453,0.4528,0,0.3276,0.3303,0.3364,0.3422,0.3486,0.3534,0.364,0.3691,0.3862,0.3966,0.4116,0.4224,0.4466,0.4521,0.4691,0.4729,0.4554,0.4734,0.4635,0.4194,0.395,0.3816,0.4373,0.45,0.4502,0.4504,0.4506,0.4507,0.3272,0.3298,0.3359,0.3409,0.3463,0.3492,0.3488,0.3605,0.3685,0.3805,0.3998,0.4081,0.4264,0.4463,0.4482,0.4372,0.4365,0.4248,0.4248,0.4108,0.386,0.4358,0.4422,0.4425,0.4427,0.4428,0.443,0,0.3252,0.3281,0.3338,0.3367,0.338,0.3428,0.3483,0.3451,0.347,0.3638,0.3733,0.3848,0.3927,0.4033,0.4046,0.3915,0.3732,0.3811,0.3531,0.3463,0.398,0.3831,0.3693,0.3693,0.3693,0.3693,0.3693,0.3693,0.3241,0.3266,0.3285,0.3265,0.3274,0.3205,0.3191,0.3165,0.322,0.3227,0.326,0.3396,0.3631,0.3785,0.3671,0.3572,0.3293,0.3154,0.3157,0.3531,0.3569,0.3606,0.3453,0.3237,0.3237,0.2461,0.2456,0.2451]},{"header":{"parameterUnit":"m.s-1","parameterCategory":2,"la1":30.2991,"la2":30.254,"lo1":-89.0895,"lo2":-89.0444,"dy":0.0017,"dx":0.0017,"nx":28,"ny":28,"refTime":"2025-05-16T21:00:00:Z","depth":"0","parameterNumber":3,"parameterNumberName":"V-component_of_CURRENTS"},"data":[0,0,0,0,0,0,0,0,0,0,0,0,0,0,0,0,0,0,0,0,0,0,0,0,0,0,0,0,0,0,0,0,0,0,0,0,0,0,0,0,0,0,0,0,0,0,0,0,0,0,0,0,0,0,0,0,0,0,0.0056,0.0055,0,-0.0008,-0.0009,-0.001,-0.0061,-0.0061,-0.0062,-0.0062,-0.0155,-0.0157,-0.0159,0,0,0,0,0,0,0,0,0,0,0,0,0,0.0088,0.0088,0.0056,0.0055,0.0055,-0.0008,-0.0009,-0.001,-0.0061,-0.0061,-0.0062,-0.0062,-0.0154,-0.0157,-0.0159,0,0,0,0,0,0,0,0,0,0,0,0,0,0.0053,0.0088,0.0056,0.0023,0.0019,-0.0007,-0.0009,-0.001,-0.0061,-0.0061,-0.0062,-0.0063,-0.0154,-0.0157,-0.016,-0.0168,0,0,-0.017,-0.0171,0,0,0,0,0,0,0,0,0.0055,0.0052,0.0028,0.0025,0.0021,-0.0026,-0.0031,-0.0064,-0.0061,-0.0032,-0.0062,-0.0063,-0.0113,-0.012,-0.0132,-0.0172,-0.0176,-0.017,-0.0172,-0.0173,-0.0174,0,0,0,0,0,0,0,0.0058,0.0054,0.0029,0.0028,0.0023,-0.0005,-0.001,-0.0038,-0.007,-0.0035,-0.0038,-0.0043,-0.0116,-0.0129,-0.0135,-0.0177,-0.017,-0.0173,-0.0174,-0.0176,-0.0207,-0.0206,0,0,0,0,0,0,0.0072,0.0057,0.0031,0.0027,0.0039,-0.0004,-0.001,-0.0011,-0.0069,-0.0078,-0.0042,-0.0045,-0.0123,-0.0131,-0.0138,-0.0116,-0.0173,-0.0176,-0.0178,-0.0208,-0.0207,-0.0206,0,0,0,0,0,0,0.0073,0.007,0.0034,0.0041,0.0035,-0.0004,-0.0005,-0.0012,-0.0023,-0.0075,-0.0084,-0.0045,-0.0124,-0.0134,-0.0152,-0.0122,-0.0177,-0.018,-0.021,-0.0208,-0.0206,-0.0095,0,0,0,0,0,0,0.0074,0.0071,0.0075,0.0043,0.0035,0.0028,-0.0004,-0.0013,-0.0025,-0.0029,-0.008,-0.0089,-0.0125,-0.0147,-0.0155,-0.0127,-0.0183,-0.0211,-0.0209,-0.0207,-0.01,-0.0089,-0.0081,0,0,0,0,0,0.0075,0.0084,0.0075,0.0072,0.0042,0.0029,0.0023,-0.0008,-0.0024,-0.0022,-0.0054,-0.0088,-0.014,-0.0149,-0.0159,-0.0131,-0.0212,-0.0209,-0.0207,-0.0104,-0.0091,-0.0081,0,0,0,0,0,0,0.0099,0.0079,0.0068,0.0071,0.0057,0.0021,0.0018,-0.0,-0.0024,-0.003,-0.0078,-0.0089,-0.0096,-0.0129,-0.0137,-0.0134,-0.018,-0.0179,-0.0098,-0.0087,-0.0078,-0.0044,-0.0185,0,0,0,0,0,0.0108,0.0111,0.0088,0.0091,0.0085,0.0054,0.0045,0.0027,0.0001,-0.0011,-0.0044,-0.0076,-0.0094,-0.0103,-0.0134,-0.013,-0.0142,-0.0118,-0.0109,-0.01,-0.008,-0.0063,-0.0049,-0.0198,-0.0198,-0.0198,0,0,0.0118,0.0108,0.0109,0.0097,0.008,0.009,0.0047,0.0039,0.0055,-0.0017,-0.0011,-0.005,-0.0089,-0.0086,-0.009,-0.0108,-0.0066,-0.0097,-0.009,-0.0074,-0.0059,-0.0044,-0.0031,-0.0196,-0.0197,-0.0197,0,0,0.015,0.0132,0.0149,0.0143,0.0129,0.0114,0.0118,0.009,0.0083,0.0081,0.004,0.0029,-0.0012,-0.0018,-0.0029,0.0016,-0.0022,-0.0002,0.0082,0.0099,0.0112,0.0123,0.0124,0.0134,0.0011,0.0011,0.0011,0,0.0164,0.0188,0.0153,0.017,0.0181,0.0134,0.0166,0.0151,0.0124,0.0145,0.0096,0.0081,0.0029,0.0072,0.0073,0.0041,0.0035,0.0044,0.0114,0.0125,0.0134,0.0132,0.0143,0.0017,0.0016,0.0016,0.0015,0,0.0209,0.0233,0.0242,0.0257,0.0259,0.0277,0.026,0.0268,0.025,0.0245,0.0268,0.0206,0.0213,0.0184,0.0133,0.0187,0.0154,0.012,0.0091,0.0157,0.0149,0.0158,0.0025,0.0023,0.0021,0.002,0,0,0.0244,0.0274,0.0281,0.0325,0.0313,0.0336,0.036,0.0397,0.0459,0.0405,0.0489,0.0419,0.0397,0.0382,0.0329,0.0321,0.0357,0.025,0.0248,0.0263,0.0389,0.0333,0.0336,0.0336,0.0339,0.034,0.0356,0,0.0302,0.0376,0.0367,0.0453,0.0498,0.0479,0.0525,0.0546,0.0555,0.0617,0.0567,0.0607,0.0473,0.0494,0.0463,0.0394,0.0386,0.0356,0.0313,0.0312,0.0265,0.0347,0.0289,0.0296,0.0364,0.0365,0.0366,0,0.0361,0.0412,0.0507,0.0598,0.0618,0.0663,0.0764,0.0796,0.0847,0.086,0.0877,0.0839,0.0831,0.0707,0.0628,0.0616,0.0513,0.0437,0.0436,0.0356,0.0273,0.024,0.0308,0.0091,0.0379,0.0378,0.0377,0,0.0441,0.052,0.0616,0.0639,0.0717,0.0781,0.0827,0.0886,0.0964,0.1037,0.1112,0.1069,0.1089,0.0958,0.0767,0.0715,0.0674,0.0592,0.0449,0.0443,0.0372,0.0356,0.0237,0.055,0.055,0.055,0.055,0,0.0525,0.061,0.0675,0.0736,0.0877,0.0889,0.1043,0.1088,0.1191,0.1322,0.1257,0.135,0.1151,0.1088,0.0877,0.0701,0.0766,0.049,0.0458,0.0406,0.0394,0.0181,0.0064,0.055,0.055,0.055,0.055,0,0.0624,0.065,0.0781,0.0886,0.0924,0.1036,0.1179,0.1302,0.1373,0.155,0.1591,0.1593,0.1508,0.1291,0.1098,0.0873,0.0561,0.0607,0.0547,0.0507,0.0145,0.0037,-0.0093,-0.0177,0.0465,0.0464,0.0463,0,0.0694,0.0765,0.0899,0.0981,0.1044,0.1185,0.1295,0.139,0.1527,0.1696,0.1811,0.1798,0.1799,0.1497,0.1108,0.078,0.056,0.05,0.0378,0.0144,0.0002,-0.0077,-0.0144,0.0324,0.0322,0.0321,0.032,0,0.0842,0.088,0.0987,0.1132,0.1264,0.1404,0.1569,0.17,0.1833,0.1975,0.2135,0.2153,0.1879,0.1525,0.1073,0.0809,0.0332,0.0455,0.0241,-0.0084,-0.0202,-0.0305,0.028,0.0305,0.0307,0.0308,0.0309,0.0309,0.0957,0.1051,0.116,0.1302,0.1439,0.1604,0.1737,0.1912,0.2113,0.2327,0.234,0.2374,0.1868,0.1243,0.0891,0.0184,0.0229,-0.0052,-0.015,-0.0198,-0.032,0.0228,0.0193,0.0194,0.0195,0.0195,0.0196,0,0.1076,0.1162,0.1314,0.1471,0.1621,0.1666,0.1905,0.2046,0.2266,0.2431,0.2541,0.2259,0.1646,0.1017,0.0096,-0.0349,-0.051,-0.0587,-0.0726,-0.0755,-0.0246,-0.0297,-0.0473,-0.0473,-0.0472,-0.0472,-0.0472,-0.0472,0.1145,0.1283,0.1344,0.1579,0.1694,0.1894,0.2024,0.2232,0.2379,0.2529,0.2499,0.2462,0.1923,0.0379,-0.066,-0.0887,-0.1181,-0.126,-0.1349,-0.1049,-0.1007,-0.0968,-0.1044,-0.1373,-0.1374,-0.1831,-0.1836,-0.184]}],[{"header":{"parameterUnit":"m.s-1","parameterCategory":2,"la1":30.2991,"la2":30.254,"lo1":-89.0895,"lo2":-89.0444,"dy":0.0017,"dx":0.0017,"nx":28,"ny":28,"refTime":"2025-05-16T21:00:00:Z","depth":"2","parameterNumber":2,"parameterNumberName":"U-component_of_CURRENTS"},"data":[0,0,0,0,0,0,0,0,0,0,0,0,0,0,0,0,0,0,0,0,0,0,0,0,0,0,0,0,0,0,0,0,0,0,0,0,0,0,0,0,0,0,0,0,0,0,0,0,0,0,0,0,0,0,0,0,0,0,0.3283,0.3285,0,0.3431,0.3431,0.3432,0.3427,0.3427,0.3426,0.3425,0.3479,0.3481,0.3483,0,0,0,0,0,0,0,0,0,0,0,0,0,0.2912,0.2918,0.3282,0.3285,0.3289,0.3431,0.3431,0.3432,0.3428,0.3427,0.3426,0.3425,0.3479,0.3481,0.3484,0,0,0,0,0,0,0,0,0,0,0,0,0,0.3054,0.292,0.3282,0.3314,0.332,0.3431,0.3431,0.3432,0.3428,0.3427,0.3426,0.3425,0.3478,0.3481,0.3484,0.3525,0,0,0.3494,0.3495,0,0,0,0,0,0,0,0,0.3046,0.3066,0.3306,0.3312,0.3319,0.3422,0.3322,0.3464,0.3428,0.3371,0.3425,0.3424,0.3462,0.3466,0.3477,0.3527,0.353,0.3494,0.3496,0.3497,0.3498,0,0,0,0,0,0,0,0.3036,0.3059,0.3326,0.331,0.3318,0.3294,0.3312,0.3347,0.3408,0.3376,0.338,0.342,0.3462,0.3474,0.3478,0.3531,0.3494,0.3497,0.3499,0.35,0.3586,0.3587,0,0,0,0,0,0,0.3055,0.3051,0.3322,0.3332,0.3193,0.3303,0.3323,0.3378,0.341,0.3418,0.3421,0.3419,0.3469,0.3475,0.348,0.3493,0.3497,0.35,0.3502,0.3586,0.3586,0.3587,0,0,0,0,0,0,0.3046,0.3078,0.3316,0.3204,0.3235,0.3313,0.3374,0.3382,0.3412,0.3447,0.345,0.3446,0.3469,0.3476,0.3497,0.3496,0.3502,0.3504,0.3585,0.3586,0.3587,0.3543,0,0,0,0,0,0,0.3035,0.3074,0.3113,0.3207,0.3243,0.3383,0.3377,0.3386,0.3444,0.3444,0.347,0.3473,0.3468,0.3492,0.35,0.3501,0.3507,0.3585,0.3586,0.3586,0.3544,0.3542,0.354,0,0,0,0,0,0.3021,0.3105,0.3115,0.3148,0.3298,0.3386,0.34,0.3439,0.3447,0.346,0.3462,0.3473,0.3502,0.3495,0.3504,0.3506,0.3585,0.3586,0.3586,0.3545,0.3542,0.354,0,0,0,0,0,0,0.2958,0.3117,0.3128,0.3252,0.3307,0.339,0.3431,0.3457,0.3474,0.3471,0.3481,0.3484,0.3513,0.3519,0.3511,0.3535,0.3546,0.3549,0.3511,0.3509,0.3507,0.3545,0.3509,0,0,0,0,0,0.2967,0.3075,0.3175,0.3265,0.3299,0.336,0.3404,0.343,0.3471,0.3479,0.3499,0.3512,0.3525,0.3523,0.355,0.356,0.3601,0.3568,0.3566,0.3564,0.3602,0.3658,0.3665,0.359,0.359,0.359,0,0,0.2958,0.3071,0.3121,0.3259,0.3304,0.3355,0.338,0.3456,0.3469,0.3484,0.3503,0.3527,0.3535,0.354,0.3552,0.3539,0.3599,0.3565,0.3563,0.3604,0.366,0.3667,0.3674,0.3591,0.359,0.359,0,0,0.2995,0.3096,0.3173,0.3232,0.3335,0.3375,0.3402,0.3482,0.348,0.3515,0.3518,0.3537,0.357,0.3555,0.3554,0.3566,0.3609,0.3578,0.3574,0.3626,0.3633,0.364,0.3665,0.3675,0.355,0.355,0.355,0,0.2965,0.3095,0.3197,0.3273,0.3315,0.3384,0.3418,0.3442,0.3509,0.3511,0.3517,0.3581,0.3575,0.3575,0.3563,0.3562,0.3604,0.3571,0.3624,0.3632,0.364,0.3665,0.3676,0.3548,0.3548,0.3548,0.3548,0,0.3053,0.3131,0.3184,0.3297,0.334,0.3403,0.3444,0.3461,0.3485,0.3525,0.3561,0.3566,0.3602,0.3588,0.3576,0.3616,0.3631,0.3633,0.3627,0.3644,0.3669,0.3682,0.3545,0.3546,0.3546,0.3547,0,0,0.307,0.3206,0.323,0.3247,0.3359,0.3404,0.3408,0.3446,0.3479,0.3521,0.3567,0.3562,0.3614,0.3618,0.361,0.3636,0.3687,0.3656,0.366,0.3679,0.3804,0.3673,0.3674,0.3708,0.371,0.3713,0.3786,0,0.3093,0.3203,0.3269,0.3324,0.3364,0.3393,0.3409,0.3447,0.3485,0.3554,0.3566,0.3646,0.3607,0.3647,0.3658,0.3719,0.3727,0.3668,0.3791,0.3794,0.3673,0.3687,0.3437,0.3471,0.3798,0.3801,0.3802,0,0.3165,0.3236,0.3275,0.3329,0.3348,0.3391,0.3428,0.346,0.3544,0.3571,0.3636,0.3706,0.3756,0.3739,0.3814,0.379,0.3798,0.3823,0.3826,0.3742,0.3688,0.3515,0.3482,0.3824,0.3822,0.382,0.3819,0,0.3149,0.324,0.3259,0.3287,0.336,0.3363,0.3422,0.3489,0.3507,0.364,0.3696,0.3782,0.3854,0.3895,0.3916,0.3897,0.4016,0.3984,0.3861,0.3852,0.3684,0.3653,0.4038,0.4038,0.4038,0.4038,0.4038,0,0.3181,0.3206,0.3263,0.3295,0.3311,0.3392,0.3422,0.3479,0.3589,0.3639,0.3746,0.3791,0.3912,0.3974,0.3972,0.3952,0.4047,0.3885,0.3871,0.3654,0.3622,0.3975,0.3966,0.4041,0.404,0.4039,0.4039,0,0.3167,0.3198,0.3219,0.3291,0.33,0.3338,0.3406,0.3452,0.3575,0.3645,0.3704,0.3849,0.3934,0.3998,0.4091,0.4011,0.402,0.3976,0.37,0.3651,0.3807,0.3796,0.3866,0.3862,0.3859,0.3856,0.3854,0,0.3163,0.3179,0.3204,0.3195,0.3229,0.3274,0.33,0.3417,0.3489,0.3632,0.3692,0.3829,0.3838,0.3924,0.3891,0.3875,0.3956,0.3605,0.35,0.3815,0.3795,0.3789,0.3782,0.3255,0.3248,0.3242,0.3238,0,0.3154,0.3153,0.3174,0.3152,0.3159,0.3155,0.3253,0.3263,0.3404,0.3455,0.3548,0.3579,0.3679,0.3572,0.358,0.3523,0.3593,0.3484,0.392,0.3322,0.324,0.322,0.3233,0.3187,0.3192,0.3196,0.3199,0.3201,0.3122,0.3117,0.3116,0.3075,0.3086,0.3064,0.3034,0.3108,0.3124,0.3168,0.3299,0.3252,0.3315,0.3187,0.3099,0.3066,0.3281,0.315,0.3168,0.3192,0.3092,0.3007,0.2892,0.2895,0.2898,0.29,0.2902,0,0.3038,0.3049,0.3034,0.2992,0.2956,0.3004,0.3007,0.2891,0.2832,0.2913,0.292,0.2653,0.2607,0.2693,0.2566,0.2546,0.2522,0.2454,0.2424,0.2478,0.2525,0.239,0.2005,0.2001,0.1998,0.1995,0,0,0.2983,0.292,0.2897,0.2813,0.2841,0.2745,0.2703,0.2546,0.2518,0.2329,0.2333,0.2475,0.2605,0.2256,0.2227,0.211,0.2268,0.2027,0.2758,0.2778,0.2821,0.2947,0.2803,0,0,0,0,0]},{"header":{"parameterUnit":"m.s-1","parameterCategory":2,"la1":30.2991,"la2":30.254,"lo1":-89.0895,"lo2":-89.0444,"dy":0.0017,"dx":0.0017,"nx":28,"ny":28,"refTime":"2025-05-16T21:00:00:Z","depth":"2","parameterNumber":3,"parameterNumberName":"V-component_of_CURRENTS"},"data":[0,0,0,0,0,0,0,0,0,0,0,0,0,0,0,0,0,0,0,0,0,0,0,0,0,0,0,0,0,0,0,0,0,0,0,0,0,0,0,0,0,0,0,0,0,0,0,0,0,0,0,0,0,0,0,0,0,0,-0.0255,-0.0255,0,-0.0329,-0.033,-0.0332,-0.038,-0.038,-0.038,-0.0379,-0.0406,-0.0407,-0.0408,0,0,0,0,0,0,0,0,0,0,0,0,0,-0.0169,-0.0171,-0.0255,-0.0255,-0.0255,-0.0329,-0.033,-0.0332,-0.038,-0.038,-0.038,-0.0379,-0.0406,-0.0407,-0.0408,0,0,0,0,0,0,0,0,0,0,0,0,0,-0.0227,-0.0171,-0.0255,-0.0284,-0.0287,-0.0328,-0.033,-0.0332,-0.038,-0.038,-0.038,-0.0379,-0.0405,-0.0407,-0.0408,-0.0424,0,0,-0.0412,-0.0413,0,0,0,0,0,0,0,0,-0.0223,-0.0231,-0.0279,-0.0282,-0.0285,-0.034,-0.031,-0.0358,-0.038,-0.0351,-0.0379,-0.0379,-0.0376,-0.0379,-0.0403,-0.0425,-0.0426,-0.0412,-0.0413,-0.0414,-0.0414,0,0,0,0,0,0,0,-0.0219,-0.0228,-0.029,-0.028,-0.0283,-0.0298,-0.0306,-0.032,-0.0368,-0.0354,-0.0356,-0.0355,-0.0378,-0.0402,-0.0404,-0.0426,-0.0412,-0.0413,-0.0414,-0.0415,-0.0402,-0.0401,0,0,0,0,0,0,-0.0198,-0.0224,-0.0288,-0.0292,-0.0246,-0.0299,-0.0309,-0.0327,-0.0369,-0.0374,-0.0355,-0.0357,-0.04,-0.0403,-0.0405,-0.0347,-0.0414,-0.0415,-0.0416,-0.0404,-0.0402,-0.0401,0,0,0,0,0,0,-0.0196,-0.0204,-0.0285,-0.0253,-0.0264,-0.03,-0.0321,-0.0329,-0.0336,-0.037,-0.0375,-0.035,-0.04,-0.0403,-0.0406,-0.0351,-0.0416,-0.0417,-0.0405,-0.0403,-0.0401,-0.0281,0,0,0,0,0,0,-0.0194,-0.0204,-0.0211,-0.0253,-0.0265,-0.0292,-0.0321,-0.033,-0.0334,-0.0336,-0.0367,-0.0371,-0.04,-0.0403,-0.0407,-0.0354,-0.0418,-0.0406,-0.0404,-0.0402,-0.0286,-0.0275,-0.0265,0,0,0,0,0,-0.0191,-0.0196,-0.0212,-0.0219,-0.0275,-0.029,-0.0298,-0.0327,-0.0333,-0.0333,-0.0356,-0.0369,-0.0391,-0.0404,-0.0408,-0.0354,-0.0407,-0.0405,-0.0402,-0.0291,-0.0277,-0.0266,0,0,0,0,0,0,-0.0154,-0.0202,-0.022,-0.0238,-0.0254,-0.0296,-0.0299,-0.0312,-0.0334,-0.0331,-0.0365,-0.037,-0.0349,-0.0377,-0.039,-0.0347,-0.0397,-0.0395,-0.031,-0.0298,-0.0288,-0.0275,-0.0419,0,0,0,0,0,-0.015,-0.0167,-0.0207,-0.0212,-0.0225,-0.0258,-0.0267,-0.0281,-0.0303,-0.0312,-0.0329,-0.0344,-0.0346,-0.0342,-0.0359,-0.0339,-0.0386,-0.0306,-0.0295,-0.0286,-0.028,-0.0311,-0.0303,-0.0392,-0.0392,-0.0392,0,0,-0.013,-0.0158,-0.0165,-0.0204,-0.0226,-0.0215,-0.0264,-0.0267,-0.0238,-0.0309,-0.0281,-0.0311,-0.0336,-0.0314,-0.0305,-0.0326,-0.0287,-0.0283,-0.0275,-0.0273,-0.0308,-0.0299,-0.0291,-0.039,-0.0391,-0.0391,0,0,-0.0096,-0.0131,-0.0139,-0.0141,-0.0162,-0.0177,-0.0167,-0.0198,-0.02,-0.0186,-0.022,-0.0225,-0.023,-0.0238,-0.0241,-0.0185,-0.0236,-0.0177,-0.0105,-0.0134,-0.0127,-0.0121,-0.0176,-0.0176,-0.0166,-0.0165,-0.0165,0,-0.0072,-0.0076,-0.0135,-0.0126,-0.01,-0.0146,-0.0111,-0.0122,-0.0138,-0.0125,-0.0156,-0.0164,-0.019,-0.0152,-0.0137,-0.0157,-0.0196,-0.0145,-0.012,-0.0115,-0.0111,-0.0169,-0.017,-0.0159,-0.016,-0.0161,-0.0161,0,-0.0049,-0.0024,-0.0018,-0.0018,-0.001,0.0023,0.0009,0.0019,0.0015,0.0008,0.0029,-0.0028,-0.003,-0.0031,-0.0067,-0.0034,-0.008,-0.0107,-0.0148,-0.0095,-0.0159,-0.0163,-0.015,-0.0153,-0.0154,-0.0156,0,0,-0.0026,-0.0008,0.001,0.0052,0.0066,0.0084,0.0128,0.0157,0.02,0.0168,0.0216,0.0189,0.0143,0.0134,0.0088,0.006,0.0044,-0.0003,-0.0008,-0.0051,-0.0039,-0.0089,-0.0099,0.0024,0.0025,0.0025,-0.0098,0,0.0031,0.0099,0.0085,0.0195,0.0245,0.0237,0.0292,0.0313,0.031,0.0336,0.0284,0.0304,0.0215,0.0218,0.0174,0.0082,0.004,0.0078,-0.009,-0.0096,-0.014,-0.0102,-0.0067,-0.0174,-0.0102,-0.0103,-0.0103,0,0.0082,0.0133,0.0235,0.0338,0.0353,0.0405,0.0489,0.0529,0.0542,0.053,0.0513,0.0463,0.0427,0.0339,0.0196,0.0224,0.0102,0.0014,0.0007,-0.0084,-0.0151,-0.0216,-0.0185,-0.0111,-0.011,-0.011,-0.0109,0,0.0175,0.0261,0.0358,0.0395,0.0471,0.0521,0.0571,0.0604,0.0645,0.066,0.0675,0.0607,0.0587,0.0432,0.0231,0.0222,0.0051,0.0016,-0.015,-0.0156,-0.0183,-0.0191,-0.009,-0.009,-0.0089,-0.0089,-0.0089,0,0.028,0.037,0.0414,0.0482,0.0597,0.0625,0.0725,0.0755,0.0798,0.0849,0.0785,0.0794,0.0611,0.0484,0.0279,0.0048,0.0082,-0.0134,-0.0182,-0.0142,-0.0145,-0.0134,-0.0138,-0.0094,-0.0093,-0.0092,-0.0091,0,0.0387,0.0416,0.0524,0.0613,0.0646,0.0733,0.082,0.0879,0.0921,0.0979,0.0995,0.0948,0.0791,0.0562,0.0317,0.0129,-0.0096,-0.0193,-0.0148,-0.0187,-0.03,-0.0296,-0.0374,-0.0376,-0.0379,-0.038,-0.0382,0,0.0448,0.0512,0.0612,0.0656,0.07,0.0806,0.087,0.0937,0.101,0.1056,0.1108,0.1008,0.0921,0.0551,0.0231,-0.012,-0.0151,-0.0313,-0.0321,-0.0286,-0.0325,-0.0317,-0.0311,-0.0318,-0.0319,-0.032,-0.032,0,0.0543,0.0563,0.0628,0.0699,0.0768,0.0874,0.0995,0.107,0.114,0.1214,0.1269,0.1209,0.0885,0.0579,0.0131,-0.0103,-0.025,-0.0339,-0.0301,-0.0248,-0.0243,-0.0278,-0.0271,-0.0327,-0.0326,-0.0326,-0.0325,-0.0325,0.0572,0.0605,0.063,0.0694,0.0798,0.0921,0.1006,0.1152,0.1276,0.1403,0.1345,0.129,0.0947,0.0397,0.0027,-0.032,-0.0319,-0.0443,-0.0437,-0.0431,-0.0399,-0.0397,-0.0506,-0.0506,-0.0507,-0.0507,-0.0507,0,0.0551,0.0567,0.0614,0.0693,0.0791,0.0886,0.1058,0.1155,0.1331,0.1461,0.1503,0.1147,0.0808,0.0438,-0.008,-0.0423,-0.0424,-0.0519,-0.0436,-0.0428,-0.0422,-0.0386,-0.0492,-0.0493,-0.0493,-0.0494,0,0,0.0514,0.05,0.0494,0.06,0.0739,0.0908,0.1018,0.1232,0.1365,0.1476,0.1506,0.1393,0.0929,0.0552,0.0099,-0.0175,-0.022,-0.0237,-0.0219,-0.0061,-0.005,-0.0357,-0.0291,0,0,0,0,0]}],[{"header":{"parameterUnit":"m.s-1","parameterCategory":2,"la1":30.2991,"la2":30.254,"lo1":-89.0895,"lo2":-89.0444,"dy":0.0017,"dx":0.0017,"nx":28,"ny":28,"refTime":"2025-05-16T21:00:00:Z","depth":"4","parameterNumber":2,"parameterNumberName":"U-component_of_CURRENTS"},"data":[0,0,0,0,0,0,0,0,0,0,0,0,0,0,0,0,0,0,0,0,0,0,0,0,0,0,0,0,0,0,0,0,0,0,0,0,0,0,0,0,0,0,0,0,0,0,0,0,0,0,0,0,0,0,0,0,0,0,0.0821,0.0821,0,0.0887,0.0889,0.0892,0.107,0.1072,0.1074,0.1077,0.121,0.1212,0.1213,0,0,0,0,0,0,0,0,0,0,0,0,0,0.099,0.0987,0.0821,0.0821,0.082,0.0887,0.0889,0.0892,0.107,0.1072,0.1075,0.1078,0.121,0.1212,0.1214,0,0,0,0,0,0,0,0,0,0,0,0,0,0.0989,0.0986,0.0822,0.0904,0.091,0.0886,0.089,0.0893,0.1069,0.1072,0.1076,0.1079,0.1209,0.1212,0.1214,0.1161,0,0,0.1221,0.1222,0,0,0,0,0,0,0,0,0.0988,0.0985,0.0892,0.0898,0.0905,0.0958,0.0997,0.098,0.1068,0.1027,0.1077,0.108,0.1118,0.1128,0.1158,0.1167,0.1173,0.1221,0.1222,0.1223,0.1224,0,0,0,0,0,0,0,0.0988,0.0983,0.0866,0.0891,0.0898,0.0984,0.0988,0.0997,0.1068,0.1031,0.104,0.1018,0.1125,0.1155,0.1162,0.1175,0.1221,0.1223,0.1224,0.1225,0.1389,0.1391,0,0,0,0,0,0,0.0932,0.0982,0.0863,0.0866,0.0936,0.0976,0.0982,0.0952,0.1067,0.1082,0.1015,0.1026,0.115,0.1159,0.1167,0.1346,0.1223,0.1225,0.1227,0.1386,0.1389,0.1392,0,0,0,0,0,0,0.0936,0.0921,0.086,0.0913,0.0909,0.0967,0.0934,0.0951,0.1022,0.1051,0.1072,0.107,0.1153,0.1164,0.1243,0.1344,0.1226,0.1228,0.1382,0.1387,0.1391,0.1553,0,0,0,0,0,0,0.094,0.0922,0.0908,0.0908,0.0903,0.0897,0.0929,0.095,0.0991,0.1008,0.1102,0.1117,0.1156,0.124,0.1245,0.1345,0.123,0.1378,0.1384,0.1389,0.1544,0.1563,0.1578,0,0,0,0,0,0.0946,0.0908,0.0907,0.0893,0.0873,0.0897,0.0908,0.0972,0.0991,0.1045,0.1111,0.1116,0.128,0.1243,0.1249,0.1352,0.1376,0.1382,0.1389,0.1536,0.1559,0.1578,0,0,0,0,0,0,0.0988,0.092,0.0921,0.0868,0.0899,0.0922,0.0955,0.0977,0.1068,0.1087,0.1135,0.1155,0.1266,0.1265,0.1222,0.1414,0.1335,0.1343,0.1445,0.1466,0.1483,0.1452,0.1232,0,0,0,0,0,0.0973,0.0908,0.091,0.0862,0.0892,0.0925,0.0944,0.0978,0.1029,0.1076,0.114,0.1208,0.1287,0.1341,0.139,0.1472,0.1449,0.1546,0.1564,0.1578,0.1557,0.1637,0.166,0.1415,0.1415,0.1414,0,0,0.0979,0.0912,0.0891,0.0863,0.0898,0.095,0.0955,0.0987,0.1056,0.1065,0.1204,0.1255,0.1314,0.1442,0.1493,0.1465,0.1634,0.1587,0.16,0.157,0.1647,0.1671,0.1692,0.1419,0.1418,0.1418,0,0,0.094,0.0912,0.0878,0.0914,0.0924,0.0959,0.0972,0.1034,0.1118,0.1176,0.1261,0.1361,0.1428,0.1556,0.1606,0.1726,0.1709,0.1763,0.185,0.1931,0.1952,0.1969,0.196,0.1975,0.1791,0.1792,0.1792,0,0.0954,0.0905,0.0886,0.0893,0.0947,0.0971,0.104,0.1105,0.1186,0.1271,0.1229,0.1423,0.1476,0.1694,0.1762,0.1769,0.1779,0.1776,0.1955,0.1972,0.1987,0.1973,0.1988,0.18,0.1799,0.1799,0.1798,0,0.0918,0.0923,0.0924,0.0939,0.1006,0.1055,0.1149,0.1245,0.1286,0.1338,0.1512,0.158,0.1718,0.1767,0.1792,0.1997,0.1953,0.1956,0.1902,0.2022,0.1998,0.2011,0.1813,0.181,0.1807,0.1805,0,0,0.0851,0.0893,0.0905,0.0971,0.1053,0.111,0.125,0.1404,0.1501,0.1566,0.1713,0.1856,0.1903,0.1963,0.2061,0.2121,0.2242,0.2099,0.2099,0.2086,0.2373,0.2215,0.2212,0.2302,0.2306,0.2309,0.2308,0,0.0859,0.0903,0.0929,0.1057,0.1143,0.1257,0.1391,0.1525,0.1601,0.1742,0.185,0.1985,0.1989,0.2081,0.2161,0.2228,0.2286,0.2237,0.2257,0.2255,0.2102,0.2226,0.232,0.2317,0.232,0.2322,0.2323,0,0.0842,0.0879,0.1016,0.1176,0.1235,0.1328,0.1576,0.1685,0.1878,0.1934,0.208,0.2141,0.2335,0.2258,0.2414,0.2395,0.2399,0.2385,0.2386,0.2181,0.2122,0.2174,0.2345,0.2344,0.2342,0.234,0.2339,0,0.0842,0.0954,0.1078,0.1138,0.1316,0.1451,0.1574,0.1768,0.1878,0.209,0.2132,0.2339,0.2425,0.2493,0.2492,0.249,0.2547,0.255,0.2393,0.2379,0.2445,0.2426,0.2619,0.2619,0.2619,0.2619,0.2619,0,0.0842,0.0939,0.1102,0.1176,0.1358,0.1497,0.1671,0.1824,0.1997,0.2089,0.2264,0.2338,0.2481,0.2533,0.2537,0.2489,0.261,0.2403,0.2389,0.2509,0.2498,0.2452,0.2433,0.2619,0.2619,0.2619,0.2619,0,0.0824,0.0918,0.1055,0.1271,0.1359,0.15,0.1705,0.178,0.198,0.2104,0.2183,0.2369,0.2438,0.25,0.2564,0.2509,0.2495,0.2442,0.2512,0.2502,0.2254,0.2243,0.229,0.2285,0.2281,0.2277,0.2274,0,0.0814,0.0886,0.1111,0.1176,0.1282,0.147,0.1563,0.1777,0.1837,0.2077,0.2121,0.2268,0.2355,0.2316,0.2406,0.2405,0.2377,0.2349,0.2347,0.2248,0.2232,0.2228,0.2223,0.2267,0.2266,0.2265,0.2264,0,0.0786,0.0872,0.0966,0.1103,0.1218,0.1326,0.1489,0.154,0.1745,0.1915,0.2021,0.2097,0.2148,0.2214,0.2214,0.2216,0.2373,0.2304,0.2313,0.2311,0.2221,0.2208,0.2208,0.2249,0.2251,0.2252,0.2253,0,0.0738,0.0776,0.0874,0.0995,0.1087,0.1157,0.1278,0.1374,0.1491,0.1778,0.179,0.1955,0.2102,0.2112,0.2121,0.211,0.2095,0.2044,0.2067,0.2084,0.2023,0.1879,0.1797,0,0,0,0,0,0.0669,0.0679,0.0752,0.0846,0.0914,0.1005,0.1186,0.1295,0.1505,0.1527,0.1672,0.1725,0.1803,0.1904,0.1852,0.2012,0.2077,0.1944,0.2022,0.2166,0.2183,0.2132,0,0,0,0,0,0,0.0602,0.0647,0.0691,0.0669,0.0714,0.0792,0.0914,0.1083,0.1137,0.1369,0.1425,0.1602,0.1698,0.1783,0.1803,0.1828,0.1842,0.2056,0.2051,0.2156,0.2172,0.2185,0.214,0,0,0,0,0]},{"header":{"parameterUnit":"m.s-1","parameterCategory":2,"la1":30.2991,"la2":30.254,"lo1":-89.0895,"lo2":-89.0444,"dy":0.0017,"dx":0.0017,"nx":28,"ny":28,"refTime":"2025-05-16T21:00:00:Z","depth":"4","parameterNumber":3,"parameterNumberName":"V-component_of_CURRENTS"},"data":[0,0,0,0,0,0,0,0,0,0,0,0,0,0,0,0,0,0,0,0,0,0,0,0,0,0,0,0,0,0,0,0,0,0,0,0,0,0,0,0,0,0,0,0,0,0,0,0,0,0,0,0,0,0,0,0,0,0,0.0293,0.0293,0,0.0287,0.0287,0.0286,0.0213,0.0212,0.0211,0.021,0.0102,0.01,0.0099,0,0,0,0,0,0,0,0,0,0,0,0,0,0.0154,0.0157,0.0293,0.0293,0.0294,0.0288,0.0287,0.0286,0.0213,0.0212,0.021,0.0209,0.0103,0.01,0.0098,0,0,0,0,0,0,0,0,0,0,0,0,0,0.0182,0.0158,0.0293,0.0262,0.0259,0.0288,0.0287,0.0286,0.0214,0.0212,0.021,0.0208,0.0103,0.0101,0.0098,0.0119,0,0,0.009,0.0089,0,0,0,0,0,0,0,0,0.018,0.0186,0.0266,0.0264,0.0262,0.0255,0.0199,0.0227,0.0214,0.0224,0.0209,0.0207,0.0149,0.0143,0.0138,0.0114,0.011,0.009,0.0088,0.0087,0.0087,0,0,0,0,0,0,0,0.0179,0.0186,0.0284,0.0267,0.0264,0.0219,0.0221,0.0203,0.019,0.0223,0.0219,0.023,0.0146,0.0141,0.0135,0.0108,0.009,0.0088,0.0086,0.0085,-0.0016,-0.0017,0,0,0,0,0,0,0.02,0.0185,0.0284,0.0284,0.0223,0.0224,0.0226,0.0253,0.0192,0.0184,0.0232,0.0227,0.0146,0.0138,0.0131,0.0084,0.0087,0.0085,0.0084,-0.0015,-0.0016,-0.0018,0,0,0,0,0,0,0.0198,0.021,0.0284,0.0238,0.0245,0.023,0.026,0.0254,0.0244,0.0201,0.0189,0.0228,0.0144,0.0134,0.009,0.0081,0.0084,0.0081,-0.0014,-0.0015,-0.0017,0.0033,0,0,0,0,0,0,0.0194,0.0209,0.0234,0.0241,0.0249,0.0294,0.0263,0.0256,0.0257,0.025,0.0194,0.0183,0.0142,0.0094,0.0087,0.0078,0.0079,-0.0012,-0.0014,-0.0017,0.0033,0.0034,0.0034,0,0,0,0,0,0.0189,0.0238,0.0236,0.0248,0.0285,0.0295,0.0294,0.0271,0.0259,0.0254,0.0204,0.0184,0.0074,0.0091,0.0084,0.0073,-0.0011,-0.0014,-0.0016,0.0033,0.0033,0.0034,0,0,0,0,0,0,0.0185,0.0236,0.0233,0.0293,0.029,0.0285,0.0295,0.0281,0.0243,0.0235,0.0181,0.0166,0.0116,0.009,0.011,0.0033,0.0024,0.002,0.0064,0.0065,0.0065,0.0075,0.0077,0,0,0,0,0,0.0202,0.0258,0.0269,0.0316,0.0318,0.0307,0.0311,0.0296,0.0272,0.0254,0.0214,0.0161,0.0104,0.0081,0.0032,0.0011,-0.0031,-0.0008,-0.0008,-0.0007,-0.0007,-0.0075,-0.0081,-0.0026,-0.0026,-0.0026,0,0,0.0212,0.0254,0.028,0.032,0.0319,0.0315,0.0302,0.0316,0.0298,0.025,0.0213,0.0165,0.0095,0.0048,0.0025,0.0027,-0.0047,-0.001,-0.0008,-0.0009,-0.0079,-0.0084,-0.0088,-0.0028,-0.0028,-0.0027,0,0,0.0256,0.0296,0.034,0.0342,0.0359,0.0341,0.0347,0.0338,0.0315,0.0287,0.0227,0.0177,0.0117,0.0055,0.0016,-0.0005,-0.0047,-0.0022,-0.0001,-0.0067,-0.0071,-0.0076,-0.0137,-0.0148,-0.0015,-0.0014,-0.0014,0,0.0262,0.0321,0.0347,0.0373,0.037,0.0351,0.0352,0.0332,0.0305,0.0284,0.0276,0.016,0.0114,0.0031,0.0018,-0.0002,-0.0045,0.001,-0.0064,-0.0069,-0.0075,-0.0137,-0.0149,-0.0012,-0.0013,-0.0013,-0.0013,0,0.0322,0.0352,0.0377,0.0398,0.0391,0.0399,0.0369,0.0353,0.0329,0.0303,0.0236,0.0171,0.0102,0.0076,0.0043,-0.0025,-0.0045,-0.0057,-0.0056,-0.0077,-0.0142,-0.0155,-0.0009,-0.001,-0.0011,-0.0011,0,0,0.0368,0.0409,0.0415,0.0408,0.0403,0.0399,0.0373,0.0334,0.0313,0.0276,0.0237,0.0147,0.0127,0.008,0.0031,-0.002,-0.0089,-0.0043,-0.0048,-0.0089,-0.0236,-0.0193,-0.0203,-0.0111,-0.0113,-0.0114,-0.0266,0,0.0392,0.0433,0.0447,0.0439,0.0432,0.0406,0.0381,0.0346,0.0309,0.0269,0.0202,0.0148,0.0122,0.0096,0.0038,-0.0059,-0.0122,-0.0047,-0.0225,-0.023,-0.0176,-0.0217,-0.0121,-0.0276,-0.0279,-0.0281,-0.0283,0,0.0427,0.0449,0.0455,0.0441,0.0438,0.043,0.0379,0.0361,0.0302,0.0279,0.0222,0.0173,0.0089,0.0076,-0.0093,-0.0042,-0.0135,-0.0208,-0.0216,-0.0201,-0.0211,-0.0255,-0.0308,-0.0306,-0.0304,-0.0302,-0.0301,0,0.0415,0.0442,0.0442,0.044,0.0427,0.0424,0.0413,0.0365,0.0355,0.029,0.0277,0.0167,0.0122,-0.0007,-0.0131,-0.0121,-0.0315,-0.0326,-0.0386,-0.0384,-0.0398,-0.0392,-0.0461,-0.0461,-0.0461,-0.046,-0.046,0,0.042,0.0418,0.0444,0.0442,0.0444,0.0434,0.0427,0.0404,0.0379,0.0372,0.0294,0.0262,0.0102,-0.0014,-0.0141,-0.0292,-0.0328,-0.0394,-0.0423,-0.0375,-0.0364,-0.0408,-0.04,-0.0466,-0.0465,-0.0463,-0.0462,0,0.0393,0.0414,0.0413,0.0425,0.0438,0.0437,0.0466,0.0464,0.044,0.0427,0.0416,0.0319,0.0179,0.001,-0.0205,-0.029,-0.045,-0.0502,-0.0437,-0.0459,-0.048,-0.0467,-0.0594,-0.0594,-0.0594,-0.0593,-0.0593,0,0.0379,0.038,0.0408,0.043,0.0444,0.0463,0.0488,0.0491,0.0506,0.0468,0.0471,0.0344,0.0262,-0.0005,-0.0184,-0.044,-0.0467,-0.0556,-0.0521,-0.0479,-0.0495,-0.0483,-0.0471,-0.0593,-0.0593,-0.0593,-0.0593,0,0.0349,0.0364,0.0378,0.0436,0.0474,0.0509,0.0556,0.0572,0.058,0.0553,0.0517,0.0385,0.0226,0.0022,-0.0175,-0.0356,-0.0497,-0.0555,-0.0557,-0.0525,-0.0479,-0.0493,-0.0482,-0.0592,-0.0592,-0.0592,-0.0592,0,0.0342,0.035,0.04,0.0449,0.0499,0.056,0.0571,0.0608,0.0624,0.0596,0.0581,0.0412,0.0308,0.0064,-0.0116,-0.0285,-0.0329,-0.0378,-0.0389,-0.0393,-0.0275,-0.0184,-0.024,0,0,0,0,0,0.0341,0.038,0.042,0.0487,0.0534,0.0578,0.0629,0.064,0.0648,0.0637,0.0617,0.0477,0.0229,0.0118,-0.0045,-0.0128,-0.0371,-0.0325,-0.0436,-0.0589,-0.0589,-0.0479,0,0,0,0,0,0,0.0355,0.04,0.0428,0.0518,0.0567,0.0639,0.0672,0.0675,0.0675,0.0651,0.0523,0.045,0.0204,0.0325,-0.0042,-0.0096,-0.0185,-0.0448,-0.0451,-0.0588,-0.0589,-0.0589,-0.0476,0,0,0,0,0]}]]